Regional Weather Roundup
Issued by NWS

Home | Current Version | Previous Version | Graphics & Text | Print | Product List | Glossary On
Versions: 1 2 3 4 5 6 7 8 9 10 11 12 13 14 15 16 17 18 19 20 21 22 23 24 25 26 27 28 29 30 31 32 33 34 35 36 37 38 39 40 41 42 43 44 45 46 47 48 49 50
000
ASUS43 KOAX 271710
RWRNE

WEATHER ROUNDUP FOR NEBRASKA
NATIONAL WEATHER SERVICE OMAHA NE
1200 PM CDT TUE SEP 27 2016

NOTES: SATELLITE DATA IS BEING USED TO AUGMENT CLOUD COVER ABOVE
       12000 FEET.
       "FAIR" INDICATES FEW OR NO CLOUDS BELOW 12,000 FEET WITH NO
       SIGNIFICANT WEATHER AND/OR OBSTRUCTIONS TO VISIBILITY.

  * THESE STATIONS DO NOT REPORT WEATHER SUCH AS RAIN...SNOW OR FOG.

NEZ001>004-019>022-054>056-271800-
NEBRASKA PANHANDLE

CITY           SKY/WX    TMP DP  RH WIND       PRES   REMARKS
SCOTTSBLUFF    SUNNY     68  46  45 NW7       30.16F
ALLIANCE       SUNNY     74  44  34 NW13      30.12F
CHADRON        SUNNY     73  45  36 W10       30.10F
KIMBALL        SUNNY     73  44  35 N8        30.21S
SIDNEY         SUNNY     75  43  31 W10       30.18F
$$

NEZ057>060-069>072-079>082-271800-
SOUTHWEST NEBRASKA

CITY           SKY/WX    TMP DP  RH WIND       PRES   REMARKS
NORTH PLATTE   SUNNY     72  47  40 W9        30.10F
IMPERIAL       MOSUNNY   72  43  35 SW9       30.14F
LEXINGTON      SUNNY     73  41  32 W5        30.08F
MC COOK        SUNNY     70  44  39 W7        30.12F
OGALLALA       SUNNY     74  45  35 SW6       30.12F
$$

NEZ005>010-023>029-035>040-094-271800-
NORTH CENTRAL NEBRASKA

CITY           SKY/WX    TMP DP  RH WIND       PRES   REMARKS
VALENTINE      SUNNY     73  42  32 W8        30.04F
AINSWORTH      SUNNY     72  44  36 W9        30.05F
BROKEN BOW     SUNNY     72  43  35 NW5       30.07F
O`NEILL        SUNNY     72  38  29 NW10      30.03F
ORD            SUNNY     72  43  35 NW8       30.04F
THEDFORD       SUNNY     75  46  35 W9        30.08F
$$

NEZ041-046>049-061>064-073>077-083>087-271800-
SOUTH CENTRAL NEBRASKA

CITY           SKY/WX    TMP DP  RH WIND       PRES   REMARKS
GRAND ISLAND   FAIR      74  44  34 NW10      30.05F
AURORA         FAIR      71  44  36 NW5       30.05F
HASTINGS       FAIR      73  43  33 N10       30.07F
HEBRON         FAIR      76  42  30 N7        30.04F
HOLDREGE       FAIR      74  40  28 NW6       30.08F
KEARNEY *      FAIR      75  43  31 W8        30.06F
YORK           FAIR      73  45  35 NW8       30.04F
$$

NEZ011>018-030>034-042>045-271800-
NORTHEAST NEBRASKA

CITY           SKY/WX    TMP DP  RH WIND       PRES   REMARKS
NORFOLK        FAIR      71  42  35 W7        30.01F
ALBION         FAIR      72  42  34 NW10      30.03F
BLAIR          FAIR      71  41  33 W5        30.00F
COLUMBUS *     FAIR      70  45  40 SW3       30.03F
FREMONT        FAIR      70  44  37 W8        30.01F
TEKAMAH        FAIR      72  39  30 NW13      29.99F
$$

NEZ050>053-065>068-078-088>093-271800-
SOUTHEAST NEBRASKA

CITY           SKY/WX    TMP DP  RH WIND       PRES   REMARKS
LINCOLN        FAIR      74  44  34 CALM      30.03F
OMAHA EPPLEY   FAIR      72  44  36 W7        30.00F
BEATRICE       FAIR      73  49  41 NW7       30.02F
FALLS CITY     FAIR      71  50  47 W3        30.01F
NEBRASKA CITY  FAIR      71  26  18 NW3       30.01F
PLATTSMOUTH    FAIR      71  32  23 NW8       30.01F
$$

NEZ044-045-051>053-067-271800-
OMAHA AREA

CITY           SKY/WX    TMP DP  RH WIND       PRES   REMARKS
EPPLEY FIELD   FAIR      72  44  36 W7        30.00F
BLAIR          FAIR      71  41  33 W5        30.00F
FREMONT        FAIR      70  44  37 W8        30.01F
MILLARD        FAIR      71  42  35 NW7       30.00F
OFFUTT AFB     FAIR      71  42  34 W9        29.99F
PLATTSMOUTH    FAIR      71  32  23 NW8       30.01F
WAHOO          FAIR      72  36  26 NW5       30.01F
$$




USA.gov is the U.S. government's official web portal to all federal, state and local government web resources and services.